Location: Tamazert
(32.6352°N, 5.2072°W)
Time: 03:08:09
(UTC+00:00)

Vanguard 2 Rocket - Pass Details

Date: 04 October 2022
Orbit: 555 x 3321 km, 32.9° (Epoch: 05 December)

Event Time Altitude Azimuth Distance (km) Brightness Sun altitude
Rises 05:29:50 0° 272° (W) 3,574 - -10.7°
Exits shadow 05:34:15 10° 244° (WSW) 2,233 8.3 -9.8°
Reaches altitude 10° 05:34:27 10° 242° (WSW) 2,187 8.3 -9.7°
Maximum altitude 05:36:11 12° 221° (SW) 1,940 8.2 -9.4°
Drops below altitude 10° 05:37:46 10° 199° (SSW) 1,956 8.4 -9.1°
Sets 05:41:16 0° 164° (SSE) 2,720 9.6 -8.3°
